Weather History for Naples, Italy

Change the Weather History Date:

Tuesday, January 17, 2012

  Actual Average Record
Temperature  
Mean Temperature 40 °F -  
Max Temperature 48 °F 55 °F 65 °F (2015)
Min Temperature 33 °F 40 °F 33 °F (1999)
Degree Days  
Heating Degree Days 24    
Moisture  
Dew Point 24 °F    
Average Humidity 53    
Maximum Humidity 70    
Minimum Humidity 37    
Precipitation  
Precipitation 0.00 in 0.13 in - ()
Sea Level Pressure  
Sea Level Pressure 30.29 in    
Wind  
Wind Speed 7 mph ()    
Max Wind Speed 18 mph    
Max Gust Speed -    
Visibility 5.0 miles    
Events      
Averages and records for this station are not official NWS values.
T = Trace of Precipitation, MM = Missing Value Source: Averaged Metar Reports

Daily Weather History Graph

Daily Weather History Graph

Search for Another Location

Airport:

Trip Planner

Search our weather history database for the weather conditions in past years. The results will help you decide how hot, cold, wet, or windy it might be!

Date:

Astronomy

Jan. 17, 2012 Rise Set
Actual Time 7:24 AM CET 5:01 PM CET
Civil Twilight 6:54 AM CET 5:31 PM CET
Nautical Twilight 6:20 AM CET 6:05 PM CET
Astronomical Twilight 5:47 AM CET 6:37 PM CET
Moon 1:23 AM CET (1/17) 11:42 AM CET (1/17)
Length of Visible Light 10h 36m
Length of Day
9h 36m
Last Quarter, 38% of the Moon is Illuminated
Jan 17
Last Quarter
Jan 23
New
Jan 31
First Quarter
Feb 7
Full
Feb 14
Last Quarter

Hourly Weather History & Observations

Time (CET) Temp. Windchill Dew Point Humidity Pressure Visibility Wind Dir Wind Speed Gust Speed Precip Events Conditions
12:20 AM 37.4 °F 32.1 °F 21.2 °F 52% 30.24 in - NE 6.9 mph - N/A   Clear
12:50 AM 35.6 °F 30.7 °F 23.0 °F 60% 30.24 in - NNE 5.8 mph - N/A   Clear
1:20 AM 33.8 °F 29.6 °F 21.2 °F 60% 30.24 in - NNW 4.6 mph - N/A   Clear
1:50 AM 35.6 °F 31.7 °F 21.2 °F 56% 30.24 in - North 4.6 mph - N/A   Clear
2:20 AM 37.4 °F 32.1 °F 23.0 °F 56% 30.24 in - NNE 6.9 mph - N/A   Clear
2:50 AM 35.6 °F 29.9 °F 23.0 °F 60% 30.24 in - NNE 6.9 mph - N/A   Clear
3:20 AM 37.4 °F 32.1 °F 23.0 °F 56% 30.24 in - North 6.9 mph - N/A   Clear
3:50 AM 37.4 °F 30.3 °F 23.0 °F 56% 30.24 in - NNE 10.4 mph - N/A   Clear
4:20 AM 37.4 °F 29.8 °F 24.8 °F 60% 30.24 in - NNE 11.5 mph - N/A   Clear
4:50 AM 37.4 °F 30.8 °F 23.0 °F 56% 30.24 in - NE 9.2 mph - N/A   Clear
5:20 AM 37.4 °F 29.8 °F 23.0 °F 56% 30.24 in - NE 11.5 mph - N/A   Clear
5:50 AM 37.4 °F 30.3 °F 24.8 °F 60% 30.24 in - NE 10.4 mph - N/A   Clear
6:20 AM 37.4 °F 30.3 °F 24.8 °F 60% 30.24 in - NNE 10.4 mph - N/A   Clear
6:50 AM 37.4 °F 29.8 °F 24.8 °F 60% 30.27 in - NE 11.5 mph - N/A   Clear
7:20 AM 37.4 °F 32.1 °F 24.8 °F 60% 30.27 in - NNE 6.9 mph - N/A   Clear
7:50 AM 39.2 °F 33.6 °F 23.0 °F 52% 30.27 in - NNE 8.1 mph - N/A   Clear
8:20 AM 39.2 °F 33.6 °F 24.8 °F 56% 30.27 in - NNE 8.1 mph - N/A   Clear
8:50 AM 41.0 °F 38.0 °F 24.8 °F 53% 30.27 in - NNE 4.6 mph - N/A   Clear
9:20 AM 42.8 °F 40.1 °F 24.8 °F 49% 30.30 in - NNE 4.6 mph - N/A   Clear
9:50 AM 44.6 °F 40.7 °F 26.6 °F 49% 30.30 in - NE 6.9 mph - N/A   Clear
10:20 AM 44.6 °F 41.4 °F 24.8 °F 46% 30.30 in - East 5.8 mph - N/A   Clear
10:50 AM 46.4 °F 44.3 °F 23.0 °F 40% 30.30 in - East 4.6 mph - N/A   Clear
11:20 AM 46.4 °F 42.9 °F 24.8 °F 43% 30.30 in - Variable 6.9 mph - N/A   Clear
11:50 AM 46.4 °F 39.2 °F 26.6 °F 46% 30.30 in - NE 18.4 mph - N/A   Clear
12:20 PM 46.4 °F 39.5 °F 24.8 °F 43% 30.30 in - NE 17.3 mph - N/A   Clear
12:50 PM 48.2 °F - 26.6 °F 43% 30.30 in - NE 18.4 mph - N/A   Clear
1:20 PM 48.2 °F - 23.0 °F 37% 30.27 in - NE 15.0 mph - N/A   Clear
1:50 PM 46.4 °F 39.8 °F 23.0 °F 40% 30.27 in - ENE 16.1 mph - N/A   Clear
2:20 PM 48.2 °F - 23.0 °F 37% 30.27 in - ENE 12.7 mph - N/A   Clear
2:50 PM 48.2 °F - 23.0 °F 37% 30.27 in - ENE 10.4 mph - N/A   Clear
3:20 PM 48.2 °F - 23.0 °F 37% 30.27 in - NE 10.4 mph - N/A   Clear
3:50 PM 46.4 °F 41.1 °F 23.0 °F 40% 30.27 in - NE 11.5 mph - N/A   Clear
4:20 PM 46.4 °F 41.9 °F 24.8 °F 43% 30.30 in - NE 9.2 mph - N/A   Clear
4:50 PM 44.6 °F 40.7 °F 24.8 °F 46% 30.30 in - NNE 6.9 mph - N/A   Clear
5:20 PM 42.8 °F 38.6 °F 24.8 °F 49% 30.30 in - NE 6.9 mph - N/A   Clear
5:50 PM 42.8 °F 38.0 °F 24.8 °F 49% 30.30 in - NE 8.1 mph - N/A   Clear
6:20 PM 42.8 °F 39.3 °F 24.8 °F 49% 30.33 in - NNE 5.8 mph - N/A   Clear
6:50 PM 41.0 °F 37.1 °F 24.8 °F 53% 30.33 in - NNE 5.8 mph - N/A   Clear
7:20 PM 39.2 °F 35.9 °F 24.8 °F 56% 30.33 in - NNE 4.6 mph - N/A   Clear
7:50 PM 41.0 °F 39.0 °F 24.8 °F 53% 30.33 in - NNE 3.5 mph - N/A   Clear
8:20 PM 37.4 °F - 24.8 °F 60% 30.33 in - North 1.2 mph - N/A   Clear
8:50 PM 37.4 °F 33.8 °F 24.8 °F 60% 30.36 in - NNW 4.6 mph - N/A   Clear
9:20 PM 37.4 °F 33.8 °F 24.8 °F 60% 30.36 in 5.0 mi NNW 4.6 mph - N/A   Unknown
9:50 PM 37.4 °F 32.8 °F 26.6 °F 65% 30.36 in 5.0 mi NW 5.8 mph - N/A   Unknown
10:20 PM 35.6 °F 31.7 °F 24.8 °F 65% 30.36 in 5.0 mi NW 4.6 mph - N/A   Unknown
10:50 PM 35.6 °F 32.8 °F 26.6 °F 70% 30.36 in 5.0 mi NNW 3.5 mph - N/A   Unknown
11:20 PM 35.6 °F - 26.6 °F 70% 30.39 in 5.0 mi Variable 2.3 mph - N/A   Unknown
11:50 PM 33.8 °F - 23.0 °F 65% 30.39 in 5.0 mi NNW 2.3 mph - N/A   Unknown